Memphis, TN

9:10 AM CST on February 09, 2016 (GMT -0600)
Memphis International

Weather History for KMEM - October, 2010

Change the Weather History Date:

Friday, October 1, 2010

  Actual Average Record
Temperature  
Mean Temperature 71 °F 69 °F  
Max Temperature 81 °F 80 °F 95 °F (1953)
Min Temperature 60 °F 59 °F 40 °F (1949)
Degree Days  
Heating Degree Days 0 1  
Month to date heating degree days 0 1  
Since 1 July heating degree days 0 12  
Cooling Degree Days 6 6  
Month to date cooling degree days 6 6  
Year to date cooling degree days 2735 2157  
Growing Degree Days 20 (Base 50)    
Moisture  
Dew Point 41 °F    
Average Humidity 39    
Maximum Humidity 60    
Minimum Humidity 18    
Precipitation  
Precipitation 0.00 in 0.12 in 2.64 in (1925)
Month to date precipitation 0.00 0.12  
Year to date precipitation 36.77 38.59  
Snow  
Snow 0.00 in 0.00 in 0.00 in (2002)
Month to date snowfall 0.0  
Since 1 July snowfall 0.0  
Since 1 September snowfall 0.0  
Snow Depth -    
Sea Level Pressure  
Sea Level Pressure 30.02 in    
Wind  
Wind Speed 12 mph (NNE)    
Max Wind Speed 18 mph    
Max Gust Speed 24 mph    
Visibility 10 miles    
Events      
T = Trace of Precipitation, MM = Missing Value Source: NWS Daily Summary

Daily Weather History Graph

Daily Weather History Graph

Search for Another Location

Airport or City:

Trip Planner

Search our weather history database for the weather conditions in past years. The results will help you decide how hot, cold, wet, or windy it might be!

Date:

Astronomy

Oct. 01, 2010 Rise Set
Actual Time 6:54 AM CDT 6:43 PM CDT
Civil Twilight 6:29 AM CDT 7:09 PM CDT
Nautical Twilight 6:00 AM CDT 7:38 PM CDT
Astronomical Twilight 5:30 AM CDT 8:07 PM CDT
Moon No Moon Rise 2:34 PM CDT (10/1)
Length of Visible Light 12h 39m
Length of Day
11h 49m
Last Quarter, 44% of the Moon is Illuminated
Oct 1
Last Quarter
Oct 7
New
Oct 14
First Quarter
Oct 22
Full
Oct 30
Last Quarter

Hourly Weather History & Observations

Time (CDT) Temp. Dew Point Humidity Pressure Visibility Wind Dir Wind Speed Gust Speed Precip Events Conditions
12:53 AM 68.0 °F 48.0 °F 49% 29.97 in 10.0 mi North 11.5 mph - N/A   Clear
1:53 AM 66.0 °F 48.0 °F 52% 29.98 in 10.0 mi North 12.7 mph - N/A   Clear
2:53 AM 64.0 °F 48.0 °F 56% 29.99 in 10.0 mi North 10.4 mph - N/A   Clear
3:53 AM 64.0 °F 46.9 °F 54% 29.99 in 10.0 mi NNE 9.2 mph - N/A   Clear
4:53 AM 63.0 °F 46.0 °F 54% 30.01 in 10.0 mi NNE 11.5 mph - N/A   Clear
5:53 AM 61.0 °F 46.0 °F 58% 30.02 in 10.0 mi NNE 9.2 mph - N/A   Clear
6:53 AM 60.1 °F 46.0 °F 60% 30.04 in 10.0 mi NNE 8.1 mph - N/A   Clear
7:53 AM 62.1 °F 46.0 °F 56% 30.06 in 10.0 mi NNE 11.5 mph - N/A   Clear
8:53 AM 66.0 °F 43.0 °F 43% 30.07 in 10.0 mi NE 16.1 mph - N/A   Clear
9:53 AM 70.0 °F 42.1 °F 36% 30.07 in 10.0 mi NNE 8.1 mph - N/A   Clear
10:53 AM 73.9 °F 37.0 °F 26% 30.07 in 10.0 mi North 13.8 mph 20.7 mph N/A   Clear
11:53 AM 75.9 °F 37.9 °F 25% 30.06 in 10.0 mi NNE 16.1 mph 20.7 mph N/A   Clear
12:53 PM 77.0 °F 36.0 °F 23% 30.05 in 10.0 mi NNE 12.7 mph - N/A   Clear
1:53 PM 81.0 °F 35.1 °F 19% 30.02 in 10.0 mi NNE 13.8 mph 19.6 mph N/A   Clear
2:53 PM 80.1 °F 36.0 °F 20% 30.00 in 10.0 mi North 17.3 mph 20.7 mph N/A   Clear
3:53 PM 80.1 °F 34.0 °F 19% 30.00 in 10.0 mi North 12.7 mph 23.0 mph N/A   Clear
4:53 PM 78.1 °F 39.0 °F 25% 30.00 in 10.0 mi NNE 11.5 mph 20.7 mph N/A   Clear
5:53 PM 75.9 °F 41.0 °F 29% 29.99 in 10.0 mi North 15.0 mph - N/A   Clear
6:53 PM 72.0 °F 39.0 °F 30% 30.01 in 10.0 mi North 11.5 mph - N/A   Clear
7:53 PM 70.0 °F 37.0 °F 30% 30.01 in 10.0 mi North 11.5 mph - N/A   Clear
8:53 PM 68.0 °F 36.0 °F 31% 30.01 in 10.0 mi North 12.7 mph 18.4 mph N/A   Clear
9:53 PM 66.9 °F 37.0 °F 33% 30.02 in 10.0 mi NNE 8.1 mph - N/A   Clear
10:53 PM 64.0 °F 39.0 °F 40% 30.02 in 10.0 mi NNE 8.1 mph - N/A   Clear
11:53 PM 63.0 °F 39.9 °F 43% 30.02 in 10.0 mi North 10.4 mph - N/A   Clear